Location: Brunembert
(50.7122°N, 1.8935°E)
Time: 10:45:48
(UTC+00:00)

Cosmos 909 Rocket - Pass Details

Date: 22 April 2021
Orbit: 989 x 2090 km, 65.9° (Epoch: 05 May)

Event Time Altitude Azimuth Distance (km) Brightness Sun altitude
Rises 20:31:44 0° 228° (SW) 3,741 7.2 -13.4°
Reaches altitude 10° 20:34:19 10° 231° (SW) 2,758 6.5 -13.7°
Maximum altitude 20:40:32 67° 314° (NW) 1,081 4.5 -14.5°
Drops below altitude 10° 20:47:11 10° 37° (NE) 2,935 6.6 -15.2°
Sets 20:50:01 0° 41° (NE) 3,999 7.3 -15.6°
